Flag for Micronesia Weather past 2 weeks in Tofol, Kosrae, Micronesia

Now
79 °F

Mostly cloudy.


Feels Like: 83 °F
Forecast: 80 / 85 °F
Wind: 3 mph from West

Location: Pohnpei

Current Time: Jul 29, 2015 at 6:46:04 PM

Latest Report: Jul 29, 2015 at 5:55 PM


Visibility: 15 mi

Pressure: 29.81 "Hg

Humidity: 96%

Dew point: 78 °F

Location of TofolLocation

Historic Weather in Tofol — Graph

°F

Tofol temperature yesterday

Maximum temperature yesterday: 90 °F (at 1:50 PM)
Minimum temperature yesterday: 75 °F (at 4:52 AM)
Average temperature yesterday: 82 °F

Past Weeks' High & Low Weather Summary

 TemperatureHumidityPressure
High90 °F (Jul 16, 11:52 AM)99% (Jul 17, 7:50 AM)29.96 "Hg (Jul 17, 7:50 AM)
Low75 °F (Jul 25, 2:56 AM)64% (Jul 16, 12:52 PM)29.76 "Hg (Jul 15, 5:53 PM)
Average81 °F87%29.87 "Hg
* Reported Jul 14 5:50 PM — Jul 29 5:55 PM, Tofol, Weather by CustomWeather, © 2015

Note: Actual official high and low records may vary slightly from our data, if they occured in-between our weather recording intervals... More about our weather records

Advertising

Tofol weather history for previous 24 hours

 ConditionsComfort  
Time TempWeatherWind HumidityBarometerVisibility
5:55 PM
Wed, Jul 29
79 °FMostly cloudy.3 mph96%29.81 "Hg15 mi
4:50 PM81 °FSprinkles. Mostly cloudy.7 mph88%29.79 "Hg15 mi
3:51 PM83 °FMostly cloudy.6 mph82%29.79 "Hg15 mi
2:53 PM83 °FMostly cloudy.3 mph81%29.79 "Hg15 mi
1:53 PM84 °FMostly cloudy.5 mph80%29.79 "Hg15 mi
12:52 PM84 °FMostly cloudy.6 mph82%29.80 "Hg15 mi
11:54 AM86 °FMostly cloudy.6 mph75%29.83 "Hg15 mi
10:54 AM85 °FMostly cloudy.5 mph77%29.85 "Hg15 mi
9:53 AM83 °FMostly cloudy.3 mph87%29.87 "Hg15 mi
7:53 AM80 °FCloudy.3 mph92%29.84 "Hg15 mi
6:52 AM77 °FCloudy.3 mph95%29.83 "Hg15 mi
5:51 AM76 °FMostly cloudy.3 mph91%29.82 "Hg15 mi
4:50 AM76 °FMostly cloudy.3 mph96%29.80 "Hg15 mi
3:50 AM76 °FLots of rain. Mostly cloudy.3 mph96%29.80 "Hg5 mi
2:50 AM77 °FMostly cloudy.3 mph95%29.80 "Hg15 mi
1:53 AM77 °FMostly cloudy.3 mph95%29.83 "Hg15 mi
12:54 AM77 °FRain showers. Mostly cloudy.3 mph95%29.85 "Hg7 mi
11:55 PM
Tue, Jul 28
78 °FSprinkles. Mostly cloudy.3 mph95%29.85 "Hg15 mi
10:50 PM79 °FSprinkles. Mostly cloudy.3 mph95%29.85 "Hg14 mi
9:50 PM79 °FMostly cloudy.3 mph97%29.86 "Hg15 mi
8:50 PM79 °FMostly cloudy.3 mph96%29.85 "Hg15 mi
7:50 PM78 °FSprinkles. Mostly cloudy.3 mph97%29.83 "Hg14 mi
6:50 PM83 °FPartly cloudy.3 mph88%29.80 "Hg15 mi
Weather by CustomWeather, © 2015

See weather overviewHow to use our weather pages